sat.trackr.live / text

‹ back to catalog

STARLINK-34122

NORAD 64117 · 2025-110X

PAYLOAD ACTIVE UNKNOWN

§ Identity

Operator
Country
US
Launch date
2025-05-23
Launch site
AFWTR
Launch vehicle
Mass (kg)
RCS (m²)

Purposes: comms

External: N2YO · Heavens-Above · Gunter

§ Orbital elements

Epoch: 2026-05-24T22:40:52.199040Z

Period
94.01 min
Inclination
53.1623°
Eccentricity
0.0001499
Mean motion
15.31716190 rev/d
Perigee alt
469.7 km
Apogee alt
471.7 km
Semi-major
6,848.8 km
B*
4.0303e-4
RAAN
32.1269°
Arg perigee
86.0326°
Mean anomaly
274.0847°
Rev number
5,755

§ Raw data

STARLINK-341221 64117U 25110X   26144.94504860  .00012168  00000+0  40303-3 0  99912 64117  53.1623  32.1269 0001499  86.0326 274.0847 15.31716190 57550

JSON: /api/v1/satellites/64117 · /tle

For live sub-satellite position, see the globe view (requires WebGL).

§ Visibility from observer

Set your observer location to see the next 7 days of passes ≥ 10°. The values pass through the URL so the page stays shareable.

No JS? Fill the form by hand. The geolocation button needs JavaScript.